Regional Weather Roundup
Issued by NWS

Home | Current Version | Previous Version | Graphics & Text | Print | Product List | Glossary On
Versions: 1 2 3 4 5 6 7 8 9 10 11 12 13 14 15 16 17 18 19 20 21 22 23 24 25 26 27 28 29 30 31 32 33 34 35 36 37 38 39 40 41 42 43 44 45 46 47 48 49 50
000
ASUS43 KBIS 220810
RWRND

NORTH DAKOTA REGIONAL WEATHER ROUNDUP
NATIONAL WEATHER SERVICE BISMARCK ND
300 AM CDT WED OCT 22 2014

NOTE: "FAIR" INDICATES FEW OR NO CLOUDS BELOW 12,000 FEET WITH NO
SIGNIFICANT WEATHER AND/OR OBSTRUCTIONS TO VISIBILITY.


NDZ001>003-009>011-017-220900-
NORTHWEST NORTH DAKOTA

CITY           SKY/WX    TMP DP  RH WIND       PRES   REMARKS
WILLISTON      LGT RAIN  57  47  69 W26       29.65S
MINOT          MOCLDY    63  44  50 SE6       29.61R
MINOT AFB      PTCLDY    59  50  71 W8        29.59S
$$

NDZ018>021-031>035-040>046-220900-
SOUTHWEST NORTH DAKOTA

CITY           SKY/WX    TMP DP  RH WIND       PRES   REMARKS
BISMARCK       PTCLDY    65  48  54 S15       29.68R
DICKINSON      CLEAR     52  44  74 W13       29.70R
GARRISON         N/A     53  47  79 SW6       29.66R
HETTINGER ARPT CLEAR     53  42  66 W13       29.75R
$$

NDZ004>008-012>016-024-026-027-054-220900-
NORTHEAST NORTH DAKOTA

CITY           SKY/WX    TMP DP  RH WIND       PRES   REMARKS
GRAND FORKS    CLEAR     55  41  59 S22G35    29.83F
GRND FRKS AFB  CLEAR     55  42  63 S24G31    29.81F
DEVILS LAKE    CLEAR     57  43  58 S23G32    29.70R
$$

NDZ022-023-025-028>030-036>039-047>053-220900-
SOUTHEAST NORTH DAKOTA

CITY           SKY/WX    TMP DP  RH WIND       PRES   REMARKS
FARGO          CLEAR     55  41  59 SE26G36   29.89F
JAMESTOWN      PTCLDY    61  43  51 S17G29    29.76F
$$




USA.gov is the U.S. government's official web portal to all federal, state and local government web resources and services.